Location: Cambroso
(45.2833°N, 12.0850°E)
Time: 16:42:25
(UTC+00:00)

FengYun 1-2 T - Pass Details

Date: 21 January 2021
Orbit: 847 x 881 km, 98.7° (Epoch: 26 February)

Event Time Altitude Azimuth Distance (km) Brightness Sun altitude
Rises 16:44:54 0° 163° (SSE) 3,418 7.4 -7.5°
Reaches altitude 10° 16:47:14 10° 163° (SSE) 2,491 6.7 -7.9°
Maximum altitude 16:52:48 89° 75° (ENE) 873 4.3 -8.8°
Drops below altitude 10° 16:58:27 10° 346° (NNW) 2,531 6.6 -9.7°
Sets 17:00:51 0° 347° (NNW) 3,478 7.4 -10.1°
